QPF
0.00 0.00 0.00 0.00 0.00 0.00 0.00 0.00 0.00 0.00 0.00 0.00 0.00 0.00 0.00 0.00 0.00 0.00 0.00 0.00 0.00 0.00 0.00 0.00 0.00 0.00 0.00 0.00 0.00 0.00 0.00 0.00 0.00 0.00 0.00 0.00 0.00 0.01 0.01 0.01 0.01 0.02 0.02 0.04 0.06 0.08 0.14 0.10 0.28 0.14 0.00 0.01 0.00 0.00 0.00 0.00 0.00 0.00 0.00 0.00 0.00 0.00 0.00
0.00 0.00 0.00 0.00 0.00 0.00 0.00 0.00 0.00 0.00 0.00 0.00 0.00 0.00 0.00 0.00 0.00 0.00 0.00 0.00 0.00 0.00 0.00 0.00 0.00 0.00 0.00 0.00 0.00 0.00 0.00 0.00 0.00 0.00 0.00 0.00 0.00 0.00 0.00 0.00 0.00 0.00 0.00 0.01 0.01 0.01 0.03 0.04 0.02 0.01 0.00 0.00 0.00 0.00 0.00 0.00 0.00 0.00 0.00 0.00 0.00 0.00 0.00
0.00 0.00 0.00 0.00 0.00 0.00 0.00 0.00 0.00 0.00 0.00 0.00 0.00 0.00 0.00 0.00 0.00 0.00 0.00 0.00 0.00 0.00 0.00 0.00 0.00 0.00 0.00 0.00 0.00 0.00 0.00 0.00 0.00 0.00 0.00 0.00 0.00 0.00 0.00 0.00 0.00 0.00 0.00 0.00 0.00 0.00 0.01 0.00 0.01 0.01 0.01 0.01 0.00 0.00 0.00 0.00 0.00 0.00 0.00 0.00 0.00 0.00 0.00
0.00 0.00 0.00 0.00 0.00 0.00 0.00 0.00 0.00 0.00 0.00 0.00 0.00 0.00 0.00 0.00 0.00 0.00 0.00 0.00 0.00 0.00 0.00 0.00 0.00 0.00 0.00 0.00 0.00 0.00 0.00 0.00 0.00 0.00 0.00 0.00 0.00 0.00 0.00 0.00 0.00 0.00 0.01 0.01 0.00 0.00 0.01 0.01 0.01 0.00 0.00 0.00 0.00 0.00 0.00 0.00 0.00 0.00 0.00 0.00 0.00 0.00 0.00
0.00 0.00 0.00 0.00 0.00 0.00 0.00 0.00 0.00 0.00 0.00 0.00 0.00 0.00 0.00 0.00 0.00 0.00 0.00 0.00 0.00 0.00 0.00 0.00 0.00 0.00 0.00 0.00 0.00 0.00 0.00 0.00 0.00 0.00 0.00 0.00 0.00 0.00 0.00 0.00 0.00 0.00 0.00 0.00 0.01 0.01 0.02 0.01 0.02 0.01 0.01 0.00 0.00 0.00 0.00 0.00 0.00 0.00 0.00 0.00 0.00 0.00 0.00
0.00 0.00 0.00 0.00 0.00 0.00 0.00 0.00 0.00 0.00 0.00 0.00 0.00 0.00 0.00 0.00 0.00 0.00 0.00 0.00 0.00 0.00 0.00 0.00 0.00 0.00 0.00 0.00 0.00 0.00 0.00 0.00 0.00 0.00 0.00 0.00 0.00 0.00 0.00 0.00 0.00 0.00 0.00 0.00 0.00 0.01 0.02 0.03 0.04 0.02 0.00 0.01 0.01 0.00 0.00 0.00 0.00 0.00 0.00 0.00 0.00 0.00 0.00
0.00 0.00 0.00 0.00 0.00 0.00 0.00 0.00 0.00 0.00 0.00 0.00 0.00 0.00 0.00 0.00 0.00 0.00 0.00 0.00 0.00 0.00 0.00 0.00 0.00 0.00 0.00 0.00 0.00 0.00 0.00 0.00 0.00 0.00 0.00 0.00 0.00 0.00 0.00 0.00 0.00 0.00 0.00 0.00 0.00 0.00 0.00 0.01 0.01 0.03 0.02 0.01 0.02 0.01 0.00 0.00 0.00 0.00 0.00 0.00 0.00 0.00 0.00
0.00 0.00 0.00 0.00 0.00 0.00 0.00 0.00 0.00 0.00 0.00 0.00 0.00 0.00 0.00 0.00 0.00 0.00 0.00 0.00 0.00 0.00 0.00 0.00 0.00 0.00 0.00 0.00 0.00 0.00 0.00 0.00 0.00 0.00 0.00 0.00 0.00 0.00 0.00 0.00 0.00 0.00 0.00 0.00 0.00 0.00 0.00 0.00 0.01 0.01 0.04 0.03 0.01 0.00 0.00 0.00 0.00 0.00 0.00 0.00 0.00 0.00 0.00
0.00 0.00 0.00 0.00 0.00 0.00 0.00 0.00 0.00 0.00 0.00 0.00 0.00 0.00 0.00 0.00 0.00 0.00 0.00 0.00 0.00 0.00 0.00 0.00 0.00 0.00 0.00 0.00 0.00 0.00 0.00 0.00 0.00 0.00 0.00 0.00 0.00 0.00 0.00 0.00 0.00 0.00 0.00 0.00 0.00 0.00 0.00 0.00 0.00 0.00 0.01 0.02 0.03 0.02 0.00 0.00 0.00 0.00 0.00 0.00 0.00 0.00 0.00
0.00 0.00 0.00 0.00 0.00 0.00 0.00 0.00 0.00 0.00 0.00 0.00 0.00 0.00 0.00 0.00 0.00 0.00 0.00 0.00 0.00 0.00 0.00 0.00 0.00 0.00 0.00 0.00 0.00 0.00 0.00 0.00 0.00 0.00 0.00 0.00 0.00 0.00 0.00 0.00 0.00 0.00 0.00 0.00 0.00 0.00 0.00 0.00 0.00 0.00 0.00 0.01 0.02 0.02 0.02 0.02 0.01 0.00 0.00 0.00 0.00 0.00 0.00
0.00 0.00 0.00 0.00 0.00 0.00 0.00 0.00 0.00 0.00 0.00 0.00 0.00 0.00 0.00 0.00 0.00 0.00 0.00 0.00 0.00 0.00 0.00 0.00 0.00 0.00 0.00 0.00 0.00 0.00 0.00 0.00 0.00 0.00 0.00 0.00 0.00 0.00 0.00 0.00 0.00 0.00 0.00 0.00 0.00 0.00 0.00 0.00 0.00 0.00 0.00 0.00 0.01 0.02 0.01 0.01 0.01 0.00 0.00 0.00 0.00 0.00 0.00
0.00 0.00 0.00 0.00 0.00 0.00 0.00 0.00 0.00 0.00 0.00 0.00 0.00 0.00 0.00 0.00 0.00 0.00 0.00 0.00 0.00 0.00 0.00 0.00 0.00 0.00 0.00 0.00 0.00 0.00 0.00 0.00 0.00 0.00 0.00 0.00 0.00 0.00 0.00 0.00 0.00 0.00 0.00 0.00 0.00 0.00 0.00 0.00 0.00 0.00 0.00 0.01 0.01 0.01 0.05 0.03 0.03 0.00 0.00 0.00 0.00 0.00 0.00
0.00 0.00 0.00 0.00 0.00 0.00 0.00 0.00 0.00 0.00 0.00 0.00 0.00 0.00 0.00 0.00 0.00 0.00 0.00 0.00 0.00 0.00 0.00 0.00 0.00 0.00 0.00 0.00 0.00 0.00 0.00 0.00 0.00 0.00 0.00 0.00 0.00 0.00 0.00 0.00 0.00 0.00 0.00 0.00 0.00 0.00 0.00 0.00 0.00 0.00 0.00 0.00 0.01 0.02 0.02 0.07 0.05 0.01 0.00 0.00 0.00 0.02 0.02
0.00 0.00 0.00 0.00 0.00 0.00 0.00 0.00 0.00 0.00 0.00 0.00 0.00 0.00 0.00 0.00 0.00 0.00 0.00 0.00 0.00 0.00 0.00 0.00 0.00 0.00 0.00 0.00 0.00 0.00 0.00 0.00 0.00 0.00 0.00 0.00 0.00 0.00 0.00 0.00 0.00 0.00 0.00 0.00 0.00 0.00 0.00 0.00 0.00 0.00 0.00 0.00 0.00 0.01 0.01 0.06 0.07 0.02 0.00 0.00 0.00 0.00 0.00
0.00 0.00 0.00 0.00 0.00 0.00 0.00 0.00 0.00 0.00 0.00 0.00 0.00 0.00 0.00 0.00 0.00 0.00 0.00 0.00 0.00 0.00 0.00 0.00 0.00 0.00 0.00 0.00 0.00 0.00 0.00 0.00 0.00 0.00 0.00 0.00 0.00 0.00 0.00 0.00 0.00 0.00 0.00 0.00 0.00 0.00 0.00 0.00 0.00 0.00 0.00 0.00 0.00 0.00 0.00 0.05 0.05 0.07 0.01 0.00 0.00 0.00 0.00
0.00 0.00 0.00 0.00 0.00 0.00 0.00 0.00 0.00 0.00 0.00 0.00 0.00 0.00 0.00 0.00 0.00 0.00 0.00 0.00 0.00 0.00 0.00 0.00 0.00 0.00 0.00 0.00 0.00 0.00 0.00 0.00 0.00 0.00 0.00 0.00 0.00 0.00 0.00 0.00 0.00 0.00 0.00 0.00 0.00 0.00 0.00 0.00 0.00 0.00 0.00 0.00 0.00 0.00 0.00 0.01 0.04 0.05 0.03 0.01 0.00 0.00 0.00
0.00 0.00 0.00 0.00 0.00 0.00 0.00 0.00 0.00 0.00 0.00 0.00 0.00 0.00 0.00 0.00 0.00 0.00 0.00 0.00 0.00 0.00 0.00 0.00 0.00 0.00 0.00 0.00 0.00 0.00 0.00 0.00 0.00 0.00 0.00 0.00 0.00 0.00 0.00 0.00 0.00 0.00 0.00 0.00 0.00 0.00 0.00 0.00 0.00 0.00 0.00 0.00 0.00 0.00 0.00 0.00 0.00 0.04 0.03 0.03 0.01 0.02 0.01
0.00 0.00 0.00 0.00 0.00 0.00 0.00 0.00 0.00 0.00 0.00 0.00 0.00 0.00 0.00 0.00 0.00 0.00 0.00 0.00 0.00 0.00 0.00 0.00 0.00 0.00 0.00 0.00 0.00 0.00 0.00 0.00 0.00 0.00 0.00 0.00 0.00 0.00 0.00 0.00 0.00 0.00 0.00 0.00 0.00 0.00 0.00 0.00 0.00 0.00 0.00 0.00 0.00 0.00 0.00 0.00 0.00 0.00 0.03 0.04 0.03 0.04 0.06
0.00 0.00 0.00 0.00 0.00 0.00 0.00 0.00 0.00 0.00 0.00 0.00 0.00 0.00 0.00 0.00 0.00 0.00 0.00 0.00 0.00 0.00 0.00 0.00 0.00 0.00 0.00 0.00 0.00 0.00 0.00 0.00 0.00 0.00 0.00 0.00 0.00 0.00 0.00 0.00 0.00 0.00 0.00 0.00 0.00 0.00 0.00 0.00 0.00 0.00 0.00 0.00 0.00 0.00 0.00 0.00 0.00 0.00 0.00 0.00 0.01 0.01 0.03
0.00 0.00 0.00 0.00 0.00 0.00 0.00 0.00 0.00 0.00 0.00 0.00 0.00 0.00 0.00 0.00 0.00 0.00 0.00 0.00 0.00 0.00 0.00 0.00 0.00 0.00 0.00 0.00 0.00 0.00 0.00 0.00 0.00 0.00 0.00 0.00 0.00 0.00 0.00 0.00 0.00 0.00 0.00 0.00 0.00 0.00 0.00 0.00 0.00 0.00 0.00 0.00 0.00 0.00 0.00 0.00 0.00 0.00 0.00 0.00 0.00 0.00 0.00
0.00 0.00 0.00 0.00 0.00 0.00 0.00 0.00 0.00 0.00 0.00 0.00 0.00 0.00 0.00 0.00 0.00 0.00 0.00 0.00 0.00 0.00 0.00 0.00 0.00 0.00 0.00 0.00 0.00 0.00 0.00 0.00 0.00 0.00 0.00 0.00 0.00 0.00 0.00 0.00 0.00 0.00 0.00 0.00 0.00 0.00 0.00 0.00 0.00 0.00 0.00 0.00 0.00 0.00 0.00 0.00 0.00 0.00 0.00 0.00 0.00 0.00 0.00
0.00 0.00 0.00 0.00 0.00 0.00 0.00 0.00 0.00 0.00 0.00 0.00 0.00 0.00 0.00 0.00 0.00 0.00 0.00 0.00 0.00 0.00 0.00 0.00 0.00 0.00 0.00 0.00 0.00 0.00 0.00 0.00 0.00 0.00 0.00 0.00 0.00 0.00 0.00 0.00 0.00 0.00 0.00 0.00 0.00 0.00 0.00 0.00 0.00 0.00 0.00 0.00 0.00 0.00 0.00 0.00 0.00 0.00 0.00 0.00 0.00 0.00 0.00
0.00 0.00 0.00 0.00 0.00 0.00 0.00 0.00 0.00 0.00 0.00 0.00 0.00 0.00 0.00 0.00 0.00 0.00 0.00 0.00 0.00 0.00 0.00 0.00 0.00 0.00 0.00 0.00 0.00 0.00 0.00 0.00 0.00 0.00 0.00 0.00 0.00 0.00 0.00 0.00 0.00 0.00 0.00 0.00 0.00 0.00 0.00 0.00 0.00 0.00 0.00 0.00 0.00 0.00 0.00 0.00 0.00 0.00 0.00 0.00 0.00 0.00 0.00
0.19 0.12 0.02 0.01 0.00 0.00 0.00 0.00 0.00 0.00 0.00 0.00 0.00 0.00 0.00 0.00 0.00 0.00 0.00 0.00 0.00 0.00 0.00 0.00 0.00 0.00 0.00 0.00 0.00 0.00 0.00 0.00 0.00 0.00 0.00 0.00 0.00 0.00 0.00 0.00 0.00 0.00 0.00 0.00 0.00 0.00 0.00 0.00 0.00 0.00 0.00 0.00 0.00 0.00 0.00 0.00 0.00 0.00 0.00 0.00 0.00 0.00 0.00
0.27 0.26 0.13 0.06 0.01 0.00 0.00 0.00 0.00 0.00 0.00 0.00 0.00 0.00 0.00 0.00 0.00 0.00 0.00 0.00 0.00 0.00 0.00 0.00 0.00 0.00 0.00 0.00 0.00 0.00 0.00 0.00 0.00 0.00 0.00 0.00 0.00 0.00 0.00 0.00 0.00 0.00 0.00 0.00 0.00 0.00 0.00 0.00 0.00 0.00 0.00 0.00 0.00 0.00 0.00 0.00 0.00 0.00 0.00 0.00 0.00 0.00 0.00
0.27 0.25 0.12 0.04 0.00 0.00 0.00 0.00 0.00 0.00 0.00 0.00 0.00 0.00 0.00 0.00 0.00 0.00 0.00 0.00 0.00 0.00 0.00 0.00 0.00 0.00 0.00 0.00 0.00 0.00 0.00 0.00 0.00 0.00 0.00 0.00 0.00 0.00 0.00 0.00 0.00 0.00 0.00 0.00 0.00 0.00 0.00 0.00 0.00 0.00 0.00 0.00 0.00 0.00 0.00 0.00 0.00 0.00 0.00 0.00 0.00 0.00 0.00
0.16 0.17 0.30 0.21 0.17 0.04 0.00 0.00 0.00 0.00 0.00 0.00 0.00 0.00 0.00 0.00 0.00 0.00 0.00 0.00 0.00 0.00 0.00 0.00 0.00 0.00 0.00 0.00 0.00 0.00 0.00 0.00 0.00 0.00 0.00 0.00 0.00 0.00 0.00 0.00 0.00 0.00 0.00 0.00 0.00 0.00 0.00 0.00 0.00 0.00 0.00 0.00 0.00 0.00 0.00 0.00 0.00 0.00 0.00 0.00 0.00 0.00 0.00
0.17 0.34 0.47 0.44 0.16 0.03 0.00 0.00 0.00 0.00 0.00 0.00 0.00 0.00 0.00 0.00 0.00 0.00 0.00 0.00 0.00 0.00 0.00 0.00 0.00 0.00 0.00 0.00 0.00 0.00 0.00 0.00 0.00 0.00 0.00 0.00 0.00 0.00 0.00 0.00 0.00 0.00 0.00 0.00 0.00 0.00 0.00 0.00 0.00 0.00 0.00 0.00 0.00 0.00 0.00 0.00 0.00 0.00 0.00 0.00 0.00 0.00 0.00
0.08 0.26 0.23 0.14 0.17 0.04 0.00 0.01 0.00 0.00 0.00 0.00 0.00 0.00 0.00 0.00 0.00 0.00 0.00 0.00 0.00 0.00 0.00 0.00 0.00 0.00 0.00 0.00 0.00 0.00 0.00 0.00 0.00 0.00 0.00 0.00 0.00 0.00 0.00 0.00 0.00 0.00 0.00 0.00 0.00 0.00 0.00 0.00 0.00 0.00 0.00 0.00 0.00 0.00 0.00 0.00 0.00 0.00 0.00 0.00 0.00 0.00 0.00
0.27 0.11 0.08 0.04 0.03 0.01 0.01 0.00 0.00 0.00 0.00 0.00 0.00 0.00 0.00 0.00 0.00 0.00 0.00 0.00 0.00 0.00 0.00 0.00 0.00 0.00 0.00 0.00 0.00 0.00 0.00 0.00 0.00 0.00 0.00 0.00 0.00 0.00 0.00 0.00 0.00 0.00 0.00 0.00 0.00 0.00 0.00 0.00 0.00 0.00 0.00 0.00 0.00 0.00 0.00 0.00 0.00 0.00 0.00 0.00 0.00 0.00 0.00
0.17 0.09 0.09 0.04 0.02 0.01 0.00 0.00 0.00 0.00 0.00 0.00 0.00 0.00 0.00 0.00 0.00 0.00 0.00 0.00 0.00 0.00 0.00 0.00 0.00 0.00 0.00 0.00 0.00 0.00 0.00 0.00 0.00 0.00 0.00 0.00 0.00 0.00 0.00 0.00 0.00 0.00 0.00 0.00 0.00 0.00 0.00 0.00 0.00 0.00 0.00 0.00 0.00 0.00 0.00 0.00 0.00 0.00 0.00 0.00 0.00 0.00 0.00
0.03 0.28 0.05 0.05 0.03 0.03 0.00 0.02 0.01 0.00 0.00 0.01 0.00 0.00 0.00 0.00 0.00 0.00 0.00 0.00 0.00 0.00 0.00 0.00 0.00 0.00 0.00 0.00 0.00 0.00 0.00 0.00 0.00 0.00 0.00 0.00 0.00 0.00 0.00 0.00 0.00 0.00 0.00 0.00 0.00 0.00 0.00 0.00 0.00 0.00 0.00 0.00 0.00 0.00 0.00 0.00 0.00 0.00 0.00 0.00 0.00 0.00 0.00
0.18 0.11 0.16 0.00 0.03 0.01 0.01 0.01 0.01 0.01 0.01 0.01 0.01 0.00 0.00 0.00 0.00 0.00 0.00 0.00 0.00 0.00 0.00 0.00 0.00 0.00 0.00 0.00 0.00 0.00 0.00 0.00 0.00 0.00 0.00 0.00 0.00 0.00 0.00 0.00 0.00 0.00 0.00 0.00 0.00 0.00 0.00 0.00 0.00 0.00 0.00 0.00 0.00 0.00 0.00 0.00 0.00 0.00 0.00 0.00 0.00 0.00 0.00
0.13 0.04 0.04 0.04 0.03 0.01 0.00 0.00 0.00 0.00 0.00 0.00 0.00 0.00 0.00 0.00 0.00 0.00 0.00 0.00 0.00 0.00 0.00 0.00 0.00 0.00 0.00 0.00 0.00 0.00 0.00 0.00 0.00 0.00 0.00 0.00 0.00 0.00 0.00 0.00 0.00 0.00 0.00 0.00 0.00 0.00 0.00 0.00 0.00 0.00 0.00 0.00 0.00 0.00 0.00 0.00 0.00 0.00 0.00 0.00 0.00 0.00 0.00
0.19 0.03 0.00 0.00 0.01 0.01 0.00 0.00 0.00 0.00 0.00 0.00 0.00 0.00 0.00 0.00 0.00 0.00 0.00 0.00 0.00 0.00 0.00 0.00 0.00 0.00 0.00 0.00 0.00 0.00 0.00 0.00 0.00 0.00 0.00 0.00 0.00 0.00 0.00 0.00 0.00 0.00 0.00 0.00 0.00 0.00 0.00 0.00 0.00 0.00 0.00 0.00 0.00 0.00 0.00 0.00 0.00 0.00 0.00 0.00 0.00 0.00 0.00
0.02 0.01 0.01 0.00 0.00 0.00 0.00 0.00 0.00 0.00 0.00 0.00 0.00 0.00 0.00 0.00 0.00 0.00 0.00 0.00 0.00 0.00 0.00 0.00 0.00 0.00 0.00 0.00 0.00 0.00 0.00 0.00 0.00 0.00 0.00 0.00 0.00 0.00 0.00 0.00 0.00 0.00 0.00 0.00 0.00 0.00 0.00 0.00 0.00 0.00 0.00 0.00 0.00 0.00 0.00 0.00 0.00 0.00 0.00 0.00 0.00 0.00 0.00
0.01 0.00 0.01 0.00 0.00 0.00 0.00 0.00 0.00 0.01 0.00 0.00 0.00 0.00 0.00 0.00 0.00 0.00 0.00 0.00 0.00 0.00 0.00 0.00 0.00 0.00 0.00 0.00 0.00 0.00 0.00 0.00 0.00 0.00 0.00 0.00 0.00 0.00 0.00 0.00 0.00 0.00 0.00 0.00 0.00 0.00 0.00 0.00 0.00 0.00 0.00 0.00 0.00 0.00 0.01 0.00 0.00 0.00 0.00 0.00 0.00 0.00 0.00
MSLP
1017.16 1017.24 1017.48 1017.52 1017.76 1017.80 1017.76 1017.88 1017.96 1017.92 1018.00 1018.00 1017.96 1018.00 1017.96 1017.88 1017.84 1017.84 1017.88 1017.92 1018.00 1018.16 1018.20 1018.44 1018.64 1018.76 1018.76 1018.80 1018.80 1018.88 1018.88 1018.88 1018.92 1019.08 1019.16 1019.04 1019.20 1019.04 1018.64 1018.56 1018.52 1018.56 1018.64 1018.68 1018.72 1019.12 1019.20 1019.32 1018.52 1017.64 1017.20 1017.32 1017.24 1017.20 1017.16 1017.12 1017.08 1017.08 1017.16 1017.24 1017.28 1017.32 1017.36
1017.24 1017.28 1017.52 1017.60 1017.60 1017.72 1017.72 1017.88 1017.92 1017.96 1018.00 1018.08 1018.08 1018.08 1018.04 1018.00 1018.00 1018.04 1018.04 1018.12 1018.16 1018.28 1018.36 1018.52 1018.72 1018.84 1018.92 1018.96 1018.96 1018.96 1019.08 1019.20 1019.20 1019.20 1019.20 1019.28 1019.28 1019.36 1019.16 1018.92 1018.76 1018.68 1018.68 1018.68 1018.72 1018.76 1019.08 1019.12 1018.88 1018.80 1018.24 1017.44 1017.32 1017.16 1017.16 1017.08 1017.00 1016.96 1016.96 1016.96 1016.92 1016.92 1017.00
1017.36 1017.52 1017.64 1017.68 1017.72 1017.80 1017.76 1017.80 1017.84 1017.92 1018.04 1018.16 1018.20 1018.24 1018.24 1018.20 1018.16 1018.16 1018.20 1018.28 1018.40 1018.48 1018.60 1018.72 1018.80 1018.92 1019.04 1019.12 1019.24 1019.24 1019.28 1019.28 1019.44 1019.36 1019.40 1019.40 1019.36 1019.32 1019.28 1019.32 1019.24 1019.08 1018.88 1018.76 1018.72 1018.76 1018.76 1018.84 1019.12 1019.00 1018.68 1018.68 1018.52 1017.44 1017.16 1017.12 1017.00 1016.88 1016.76 1016.68 1016.76 1016.80 1016.80
1017.16 1017.36 1017.64 1017.76 1017.80 1017.88 1017.80 1017.84 1017.84 1017.96 1018.12 1018.16 1018.28 1018.32 1018.40 1018.48 1018.40 1018.40 1018.36 1018.40 1018.48 1018.56 1018.68 1018.76 1018.92 1019.08 1019.20 1019.24 1019.32 1019.28 1019.32 1019.32 1019.40 1019.44 1019.48 1019.48 1019.48 1019.48 1019.40 1019.32 1019.36 1019.40 1019.52 1019.52 1019.24 1019.00 1019.00 1018.92 1018.84 1018.68 1018.52 1018.36 1018.28 1018.04 1017.12 1016.92 1016.92 1016.72 1016.64 1016.52 1016.56 1016.52 1016.52
1016.84 1017.12 1017.32 1017.44 1017.64 1017.68 1017.80 1017.80 1017.88 1018.00 1018.00 1018.12 1018.24 1018.28 1018.36 1018.48 1018.48 1018.48 1018.48 1018.52 1018.56 1018.60 1018.72 1018.80 1018.88 1019.00 1019.12 1019.24 1019.32 1019.36 1019.36 1019.40 1019.36 1019.36 1019.40 1019.36 1019.40 1019.44 1019.40 1019.40 1019.40 1019.36 1019.28 1019.32 1019.20 1019.16 1019.16 1019.04 1018.92 1018.76 1018.68 1018.28 1018.04 1017.80 1017.16 1016.92 1016.64 1016.60 1016.44 1016.44 1016.28 1016.20 1016.08
1016.76 1016.92 1017.08 1017.24 1017.48 1017.60 1017.72 1017.80 1017.88 1017.88 1018.00 1018.00 1018.08 1018.20 1018.28 1018.44 1018.52 1018.56 1018.64 1018.68 1018.76 1018.76 1018.76 1018.72 1018.80 1018.88 1018.96 1019.04 1019.16 1019.28 1019.36 1019.36 1019.36 1019.36 1019.32 1019.36 1019.40 1019.36 1019.36 1019.32 1019.32 1019.32 1019.36 1019.24 1019.20 1019.20 1019.12 1019.04 1018.96 1018.84 1018.36 1018.20 1018.28 1017.80 1017.36 1017.20 1016.92 1016.36 1016.20 1016.12 1016.00 1015.96 1015.92
1016.64 1016.84 1017.00 1017.08 1017.36 1017.48 1017.60 1017.56 1017.68 1017.76 1017.88 1017.96 1018.00 1018.04 1018.20 1018.40 1018.52 1018.60 1018.76 1018.84 1018.96 1018.96 1018.88 1018.84 1018.84 1018.88 1018.92 1019.00 1019.08 1019.12 1019.16 1019.28 1019.36 1019.32 1019.28 1019.32 1019.36 1019.32 1019.32 1019.28 1019.24 1019.28 1019.24 1019.20 1019.16 1019.12 1019.08 1019.04 1018.96 1018.84 1018.52 1018.16 1018.04 1017.80 1017.40 1017.20 1016.80 1016.84 1016.04 1015.80 1015.68 1015.68 1015.68
1016.44 1016.68 1016.80 1016.96 1017.16 1017.36 1017.52 1017.52 1017.60 1017.76 1017.80 1017.88 1017.96 1017.96 1018.20 1018.28 1018.36 1018.56 1018.72 1018.84 1018.92 1018.84 1018.88 1018.92 1018.96 1018.96 1019.00 1019.04 1019.08 1019.16 1019.16 1019.20 1019.24 1019.28 1019.28 1019.32 1019.24 1019.20 1019.20 1019.20 1019.24 1019.20 1019.12 1019.08 1019.00 1018.96 1018.84 1018.80 1018.76 1018.64 1018.60 1018.44 1017.96 1017.72 1017.60 1017.24 1017.00 1016.92 1016.56 1015.80 1015.64 1015.56 1015.48
1016.28 1016.52 1016.76 1016.92 1017.08 1017.16 1017.20 1017.28 1017.40 1017.60 1017.64 1017.76 1017.96 1018.08 1018.12 1018.16 1018.28 1018.44 1018.60 1018.72 1018.72 1018.80 1018.84 1018.88 1018.96 1019.00 1019.12 1019.16 1019.16 1019.24 1019.16 1019.28 1019.28 1019.24 1019.24 1019.28 1019.24 1019.20 1019.16 1019.12 1019.16 1019.08 1019.04 1018.96 1018.88 1018.76 1018.68 1018.56 1018.48 1018.44 1018.44 1018.48 1018.48 1018.08 1017.56 1017.48 1017.12 1016.76 1016.24 1016.24 1015.56 1015.36 1015.24
1016.16 1016.32 1016.48 1016.64 1016.80 1017.04 1017.12 1017.20 1017.24 1017.36 1017.64 1017.80 1017.84 1018.00 1018.04 1018.20 1018.32 1018.40 1018.44 1018.48 1018.60 1018.72 1018.76 1018.84 1018.92 1019.00 1019.12 1019.20 1019.28 1019.28 1019.24 1019.32 1019.40 1019.36 1019.28 1019.24 1019.20 1019.20 1019.16 1019.08 1019.04 1019.00 1018.88 1018.80 1018.72 1018.64 1018.52 1018.44 1018.32 1018.28 1018.28 1018.32 1018.28 1018.24 1017.84 1017.48 1017.08 1016.96 1016.24 1016.16 1016.24 1015.36 1015.12
1015.80 1016.00 1016.24 1016.40 1016.68 1016.88 1017.08 1017.20 1017.28 1017.44 1017.52 1017.64 1017.76 1017.88 1018.04 1018.16 1018.20 1018.20 1018.32 1018.40 1018.48 1018.52 1018.60 1018.72 1018.76 1018.88 1019.04 1019.08 1019.16 1019.24 1019.28 1019.44 1019.40 1019.40 1019.36 1019.36 1019.24 1019.16 1019.08 1019.00 1018.92 1018.92 1018.80 1018.72 1018.56 1018.44 1018.36 1018.28 1018.20 1018.12 1018.08 1018.08 1018.08 1018.08 1017.80 1017.56 1016.88 1016.68 1016.40 1016.04 1015.96 1015.68 1015.20
1015.60 1015.76 1016.00 1016.24 1016.52 1016.64 1016.80 1017.00 1017.08 1017.16 1017.40 1017.64 1017.68 1017.80 1017.92 1017.96 1018.08 1018.20 1018.28 1018.36 1018.48 1018.56 1018.60 1018.64 1018.68 1018.72 1018.88 1018.96 1019.00 1019.08 1019.12 1019.32 1019.36 1019.32 1019.32 1019.36 1019.28 1019.24 1019.16 1019.04 1018.96 1018.88 1018.76 1018.68 1018.56 1018.40 1018.24 1018.12 1018.04 1018.00 1017.88 1017.84 1017.80 1017.84 1017.72 1017.40 1017.00 1015.80 1016.04 1016.08 1015.72 1015.40 1015.36
1015.28 1015.48 1015.76 1016.00 1016.32 1016.40 1016.52 1016.76 1016.96 1017.16 1017.24 1017.40 1017.48 1017.64 1017.72 1017.84 1018.00 1018.12 1018.32 1018.44 1018.52 1018.60 1018.64 1018.64 1018.76 1018.80 1018.92 1018.92 1019.00 1018.96 1018.96 1019.08 1019.16 1019.20 1019.24 1019.28 1019.24 1019.20 1019.16 1019.12 1019.00 1018.88 1018.72 1018.68 1018.56 1018.44 1018.28 1018.08 1017.96 1017.88 1017.80 1017.72 1017.64 1017.56 1017.60 1017.60 1017.16 1016.28 1015.76 1015.80 1015.64 1015.44 1015.28
1015.04 1015.24 1015.52 1015.72 1015.88 1016.12 1016.36 1016.60 1016.76 1016.88 1017.20 1017.24 1017.40 1017.52 1017.64 1017.80 1018.00 1018.12 1018.32 1018.44 1018.52 1018.60 1018.64 1018.72 1018.76 1018.88 1018.92 1018.92 1018.92 1019.00 1019.00 1019.00 1018.96 1018.92 1019.00 1019.00 1019.08 1019.04 1019.04 1019.00 1018.92 1018.80 1018.68 1018.60 1018.48 1018.36 1018.24 1018.08 1017.92 1017.80 1017.64 1017.60 1017.52 1017.40 1017.44 1017.52 1017.44 1016.88 1015.84 1015.56 1015.48 1015.32 1015.08
1014.72 1015.00 1015.20 1015.44 1015.60 1015.88 1016.12 1016.36 1016.60 1016.92 1016.92 1017.16 1017.28 1017.40 1017.56 1017.80 1017.96 1018.16 1018.28 1018.36 1018.52 1018.60 1018.72 1018.80 1018.84 1018.96 1018.96 1019.00 1019.00 1019.08 1019.08 1019.00 1019.00 1018.96 1019.00 1018.96 1018.92 1018.92 1018.92 1018.92 1018.80 1018.68 1018.56 1018.48 1018.36 1018.24 1018.12 1018.00 1017.92 1017.80 1017.64 1017.48 1017.40 1017.28 1017.16 1017.24 1017.12 1017.00 1016.40 1015.60 1015.52 1015.20 1015.12
1014.56 1014.76 1014.88 1015.08 1015.24 1015.52 1015.84 1016.12 1016.44 1016.52 1016.76 1017.00 1017.24 1017.28 1017.48 1017.68 1017.92 1018.08 1018.20 1018.32 1018.44 1018.56 1018.72 1018.88 1019.04 1019.12 1019.12 1019.24 1019.24 1019.24 1019.28 1019.32 1019.32 1019.32 1019.32 1019.28 1019.20 1019.12 1019.00 1018.88 1018.76 1018.64 1018.52 1018.40 1018.28 1018.16 1018.04 1017.92 1017.80 1017.76 1017.60 1017.48 1017.36 1017.20 1017.04 1016.92 1016.88 1016.72 1016.48 1015.88 1015.52 1015.32 1015.08
1014.36 1014.52 1014.60 1014.68 1014.84 1015.12 1015.48 1015.84 1016.16 1016.32 1016.52 1016.80 1017.00 1017.24 1017.36 1017.52 1017.76 1017.92 1018.04 1018.24 1018.40 1018.56 1018.76 1018.92 1018.96 1019.08 1019.12 1019.16 1019.16 1019.24 1019.28 1019.32 1019.36 1019.36 1019.40 1019.32 1019.28 1019.24 1019.16 1019.08 1018.80 1018.56 1018.48 1018.40 1018.20 1018.08 1017.96 1017.84 1017.72 1017.64 1017.56 1017.44 1017.36 1017.24 1017.08 1016.88 1016.60 1016.44 1016.20 1016.08 1015.44 1015.52 1015.20
1014.04 1014.16 1014.12 1014.36 1014.60 1014.96 1015.28 1015.60 1015.96 1016.08 1016.44 1016.64 1016.80 1017.08 1017.28 1017.44 1017.64 1017.84 1017.92 1018.04 1018.32 1018.56 1018.68 1018.84 1018.84 1018.92 1019.00 1019.08 1019.12 1019.16 1019.20 1019.24 1019.24 1019.24 1019.20 1019.20 1019.16 1019.16 1019.12 1019.08 1018.88 1018.76 1018.56 1018.36 1018.16 1018.04 1017.88 1017.76 1017.60 1017.52 1017.48 1017.40 1017.36 1017.20 1017.12 1017.00 1016.80 1016.44 1016.20 1016.08 1015.68 1015.32 1015.16
1013.68 1013.68 1013.92 1014.28 1014.56 1014.84 1015.12 1015.36 1015.64 1015.92 1016.12 1016.36 1016.72 1016.92 1017.08 1017.40 1017.48 1017.60 1017.80 1018.08 1018.28 1018.48 1018.68 1018.72 1018.76 1018.80 1018.88 1018.96 1019.04 1019.12 1019.16 1019.16 1019.16 1019.12 1019.08 1019.08 1019.08 1019.04 1019.04 1018.92 1018.80 1018.68 1018.60 1018.52 1018.28 1018.04 1017.88 1017.68 1017.56 1017.44 1017.36 1017.28 1017.20 1017.16 1017.08 1016.96 1016.84 1016.68 1016.48 1016.20 1015.92 1015.48 1015.16
1013.20 1013.60 1013.96 1014.28 1014.56 1014.76 1014.92 1015.16 1015.36 1015.68 1016.00 1016.12 1016.48 1016.76 1017.04 1017.20 1017.40 1017.52 1017.80 1018.08 1018.24 1018.36 1018.52 1018.68 1018.76 1018.88 1018.92 1018.96 1019.00 1019.04 1019.04 1019.04 1019.08 1019.04 1019.00 1018.92 1018.88 1018.88 1018.84 1018.76 1018.68 1018.60 1018.48 1018.36 1018.24 1018.04 1017.84 1017.68 1017.52 1017.36 1017.24 1017.16 1017.04 1017.04 1016.96 1016.88 1016.76 1016.68 1016.60 1016.40 1015.96 1015.64 1015.36
1013.00 1013.40 1013.88 1014.28 1014.48 1014.64 1014.84 1015.04 1015.20 1015.52 1015.88 1016.04 1016.28 1016.52 1016.80 1017.00 1017.32 1017.60 1017.76 1017.96 1018.16 1018.36 1018.52 1018.64 1018.76 1018.84 1018.92 1019.00 1019.04 1019.04 1019.08 1019.04 1019.00 1018.96 1018.84 1018.76 1018.72 1018.68 1018.60 1018.56 1018.48 1018.40 1018.28 1018.16 1018.08 1017.88 1017.76 1017.60 1017.44 1017.32 1017.20 1017.08 1016.96 1016.88 1016.80 1016.72 1016.68 1016.64 1016.56 1016.40 1016.20 1015.84 1015.44
1012.64 1013.12 1013.60 1014.04 1014.36 1014.60 1014.72 1014.92 1015.24 1015.56 1015.76 1015.92 1016.16 1016.36 1016.68 1016.96 1017.28 1017.60 1017.80 1017.92 1018.16 1018.36 1018.48 1018.60 1018.72 1018.84 1018.88 1018.96 1019.04 1019.04 1019.04 1018.96 1018.88 1018.80 1018.68 1018.60 1018.52 1018.44 1018.36 1018.28 1018.20 1018.08 1017.96 1017.76 1017.64 1017.56 1017.48 1017.44 1017.40 1017.28 1017.04 1017.00 1016.80 1016.72 1016.64 1016.60 1016.52 1016.52 1016.44 1016.36 1016.12 1015.84 1015.56
1012.72 1012.88 1013.32 1013.60 1013.92 1014.28 1014.56 1014.84 1015.20 1015.52 1015.72 1015.92 1016.20 1016.44 1016.64 1016.92 1017.08 1017.36 1017.68 1018.00 1018.24 1018.44 1018.56 1018.64 1018.68 1018.76 1018.88 1018.96 1019.00 1019.04 1019.00 1018.92 1018.84 1018.76 1018.64 1018.48 1018.36 1018.28 1018.12 1018.04 1017.92 1017.72 1017.56 1017.44 1017.36 1017.28 1017.20 1017.12 1017.08 1017.04 1016.84 1016.84 1016.68 1016.60 1016.48 1016.40 1016.36 1016.32 1016.28 1016.20 1016.00 1015.80 1015.56
1013.52 1013.16 1013.04 1013.24 1013.64 1013.96 1014.28 1014.64 1014.96 1015.36 1015.76 1016.12 1016.24 1016.36 1016.52 1016.80 1017.12 1017.44 1017.72 1018.04 1018.24 1018.36 1018.48 1018.60 1018.64 1018.76 1018.80 1018.84 1018.92 1018.96 1018.92 1018.84 1018.80 1018.68 1018.60 1018.44 1018.28 1018.08 1017.88 1017.80 1017.68 1017.52 1017.32 1017.20 1017.08 1016.96 1016.88 1016.76 1016.64 1016.56 1016.52 1016.52 1016.48 1016.44 1016.32 1016.20 1016.00 1016.00 1015.96 1015.80 1015.60 1015.56 1015.32
1013.68 1013.52 1013.36 1013.32 1013.44 1013.68 1014.00 1014.32 1014.72 1015.24 1015.80 1016.12 1016.28 1016.44 1016.60 1016.92 1017.24 1017.56 1017.84 1018.08 1018.20 1018.40 1018.52 1018.60 1018.64 1018.72 1018.76 1018.76 1018.80 1018.84 1018.84 1018.76 1018.68 1018.60 1018.48 1018.32 1018.16 1017.96 1017.76 1017.56 1017.40 1017.28 1017.08 1016.96 1016.80 1016.68 1016.56 1016.40 1016.28 1016.16 1016.12 1016.08 1016.04 1016.12 1016.12 1016.00 1015.76 1015.64 1015.52 1015.52 1015.32 1015.08 1015.04
1012.84 1013.28 1013.40 1013.16 1013.20 1013.52 1013.76 1014.08 1014.56 1015.12 1015.48 1015.96 1016.44 1016.64 1016.88 1017.00 1017.24 1017.56 1017.80 1018.04 1018.28 1018.48 1018.56 1018.56 1018.56 1018.64 1018.64 1018.64 1018.60 1018.60 1018.60 1018.56 1018.44 1018.32 1018.24 1018.08 1017.96 1017.80 1017.60 1017.32 1017.08 1016.96 1016.80 1016.64 1016.44 1016.32 1016.24 1016.08 1015.96 1015.84 1015.72 1015.64 1015.56 1015.56 1015.56 1015.56 1015.52 1015.40 1015.16 1015.08 1014.80 1014.56 1014.48
1012.40 1012.56 1013.08 1013.56 1013.60 1013.64 1013.88 1014.04 1014.52 1015.12 1015.80 1016.40 1016.52 1016.80 1016.88 1017.00 1017.28 1017.52 1017.80 1018.04 1018.20 1018.36 1018.36 1018.40 1018.44 1018.48 1018.52 1018.48 1018.44 1018.40 1018.40 1018.32 1018.16 1018.04 1017.92 1017.80 1017.64 1017.52 1017.32 1017.12 1016.88 1016.64 1016.52 1016.40 1016.28 1016.20 1016.08 1015.96 1015.80 1015.64 1015.44 1015.32 1015.16 1015.04 1014.96 1014.92 1014.88 1014.88 1014.88 1014.68 1014.44 1014.16 1013.72
1012.24 1012.84 1013.52 1013.92 1014.20 1014.28 1014.52 1014.88 1015.00 1015.40 1015.80 1016.12 1016.32 1016.52 1016.76 1017.04 1017.24 1017.44 1017.68 1017.88 1017.96 1018.04 1018.16 1018.20 1018.32 1018.36 1018.36 1018.32 1018.24 1018.24 1018.20 1018.08 1017.92 1017.72 1017.60 1017.44 1017.28 1017.12 1016.96 1016.80 1016.64 1016.40 1016.28 1016.20 1016.08 1016.00 1015.88 1015.76 1015.60 1015.36 1015.12 1014.92 1014.80 1014.60 1014.48 1014.40 1014.40 1014.32 1014.28 1014.20 1014.04 1013.72 1013.48
1012.08 1012.16 1012.64 1013.68 1014.40 1014.48 1014.48 1014.80 1015.20 1015.92 1016.28 1016.56 1016.68 1016.76 1016.92 1017.00 1017.12 1017.24 1017.44 1017.60 1017.72 1017.88 1018.04 1018.16 1018.20 1018.20 1018.16 1018.16 1018.08 1018.12 1018.00 1017.84 1017.60 1017.40 1017.16 1017.04 1016.84 1016.72 1016.60 1016.52 1016.36 1016.16 1016.04 1015.92 1015.80 1015.76 1015.60 1015.48 1015.28 1015.04 1014.80 1014.52 1014.32 1014.12 1013.88 1013.76 1013.80 1013.72 1013.64 1013.52 1013.40 1013.28 1013.16
1011.96 1012.28 1012.68 1013.28 1013.88 1014.12 1014.40 1014.96 1015.48 1015.88 1016.16 1016.44 1016.48 1016.56 1016.72 1016.80 1017.00 1017.12 1017.28 1017.52 1017.68 1017.88 1018.00 1017.92 1017.92 1017.96 1018.00 1017.96 1017.96 1017.88 1017.72 1017.48 1017.24 1017.00 1016.72 1016.56 1016.40 1016.28 1016.24 1016.16 1016.08 1015.88 1015.68 1015.56 1015.48 1015.44 1015.32 1015.28 1015.00 1014.76 1014.52 1014.20 1013.92 1013.68 1013.24 1013.28 1013.28 1013.16 1013.12 1013.04 1012.92 1012.80 1012.76
1011.84 1012.40 1012.84 1013.32 1013.84 1014.36 1014.72 1015.04 1015.20 1015.64 1015.76 1016.20 1016.28 1016.44 1016.60 1016.76 1017.04 1017.16 1017.24 1017.40 1017.60 1017.68 1017.72 1017.72 1017.80 1017.84 1017.84 1017.76 1017.72 1017.60 1017.40 1017.16 1016.84 1016.64 1016.28 1016.08 1016.04 1015.92 1015.84 1015.68 1015.52 1015.40 1015.24 1015.12 1015.12 1015.08 1015.04 1015.00 1014.72 1014.48 1014.32 1014.00 1013.60 1013.28 1012.84 1012.92 1012.80 1012.60 1012.64 1012.56 1012.44 1012.36 1012.32
1012.16 1012.52 1012.84 1013.44 1013.96 1014.48 1014.64 1014.88 1015.56 1015.92 1016.00 1015.92 1015.84 1016.12 1016.48 1016.68 1016.92 1017.12 1017.28 1017.32 1017.40 1017.48 1017.64 1017.68 1017.72 1017.68 1017.60 1017.52 1017.40 1017.24 1017.08 1016.80 1016.48 1016.16 1015.92 1015.60 1015.48 1015.36 1015.24 1015.16 1015.08 1014.96 1014.88 1014.72 1014.72 1014.68 1014.64 1014.68 1014.40 1014.16 1014.08 1013.84 1013.32 1012.92 1012.56 1012.76 1012.48 1012.32 1012.32 1012.20 1012.04 1012.04 1011.88
1012.20 1012.72 1013.44 1013.80 1014.16 1014.40 1014.96 1015.32 1015.56 1015.64 1015.92 1015.84 1015.88 1016.08 1016.28 1016.56 1016.72 1016.76 1017.12 1017.24 1017.24 1017.40 1017.56 1017.60 1017.60 1017.52 1017.44 1017.28 1017.16 1016.96 1016.76 1016.60 1016.16 1015.72 1015.44 1015.20 1014.84 1014.72 1014.76 1014.64 1014.56 1014.52 1014.40 1014.24 1014.20 1014.12 1014.08 1014.16 1014.00 1013.76 1013.72 1013.40 1013.00 1012.44 1012.32 1012.28 1011.96 1011.96 1011.72 1011.64 1011.44 1011.40 1011.24
1012.24 1012.72 1013.40 1013.68 1014.16 1014.60 1014.88 1015.20 1015.64 1015.60 1015.72 1016.04 1016.04 1016.16 1016.32 1016.56 1016.80 1016.88 1017.08 1017.24 1017.28 1017.32 1017.44 1017.44 1017.40 1017.32 1017.12 1016.96 1016.76 1016.68 1016.44 1016.28 1015.88 1015.44 1015.04 1014.80 1014.68 1014.52 1014.36 1014.28 1014.04 1013.96 1013.84 1013.64 1013.56 1013.44 1013.40 1013.36 1013.36 1013.16 1012.96 1012.68 1012.36 1012.04 1012.16 1012.00 1011.72 1011.76 1011.36 1011.12 1011.00 1010.88 1010.72
1013.36 1013.48 1013.52 1013.84 1014.20 1014.68 1015.08 1015.16 1015.20 1015.40 1015.68 1015.76 1015.84 1016.00 1016.40 1016.80 1017.00 1017.00 1017.00 1017.04 1017.12 1017.12 1017.20 1017.28 1017.28 1017.08 1016.84 1016.60 1016.44 1016.32 1016.20 1015.88 1015.64 1015.28 1014.80 1014.56 1014.44 1014.20 1013.96 1013.72 1013.44 1013.28 1013.16 1012.96 1012.84 1012.76 1012.68 1012.60 1012.56 1012.44 1011.96 1012.00 1011.88 1011.92 1011.80 1011.64 1011.48 1011.40 1011.20 1010.88 1010.64 1010.40 1010.24
1013.28 1013.48 1013.56 1013.64 1013.72 1014.20 1014.88 1014.88 1015.08 1015.28 1015.44 1015.68 1015.96 1016.16 1016.44 1016.72 1016.76 1016.56 1016.64 1016.76 1017.00 1017.12 1017.20 1017.20 1017.04 1016.76 1016.48 1016.28 1016.08 1015.96 1015.84 1015.60 1015.36 1015.20 1014.84 1014.36 1014.12 1013.76 1013.44 1013.20 1012.88 1012.72 1012.52 1012.36 1012.24 1012.12 1012.04 1011.96 1011.88 1011.56 1011.44 1011.44 1011.40 1011.44 1011.40 1011.24 1011.08 1010.96 1010.72 1010.52 1010.28 1009.88 1009.60
1012.96 1013.08 1013.04 1013.28 1013.60 1014.00 1014.48 1014.76 1015.08 1015.28 1015.52 1015.76 1016.04 1016.24 1016.32 1016.52 1016.60 1016.64 1016.56 1016.64 1016.84 1016.96 1017.00 1017.00 1016.72 1016.48 1016.20 1016.00 1015.84 1015.68 1015.52 1015.32 1015.20 1014.96 1014.68 1014.24 1013.76 1013.40 1013.00 1012.64 1012.32 1012.16 1012.00 1011.80 1011.64 1011.48 1011.36 1011.28 1011.04 1010.84 1010.76 1010.64 1010.72 1010.76 1010.72 1010.52 1010.44 1010.20 1010.12 1009.92 1009.68 1009.32 1009.08
Thickness
5600 5600 5599 5598 5598 5598 5599 5599 5600 5599 5600 5600 5601 5601 5603 5604 5605 5607 5607 5607 5607 5606 5606 5605 5604 5605 5605 5606 5607 5607 5607 5607 5608 5608 5608 5610 5611 5614 5617 5620 5621 5622 5623 5623 5624 5623 5622 5627 5633 5637 5642 5645 5647 5649 5650 5651 5653 5654 5654 5655 5656 5656 5656
5597 5596 5595 5595 5594 5595 5596 5596 5596 5596 5596 5597 5597 5598 5599 5600 5601 5602 5603 5603 5602 5602 5602 5601 5601 5601 5601 5601 5602 5602 5602 5602 5603 5604 5604 5605 5606 5607 5610 5613 5616 5618 5620 5621 5622 5622 5621 5622 5624 5627 5632 5638 5641 5645 5646 5647 5649 5651 5652 5653 5654 5655 5655
5595 5593 5592 5591 5591 5591 5591 5592 5592 5592 5593 5593 5594 5594 5595 5596 5597 5598 5599 5599 5598 5598 5597 5597 5596 5596 5596 5597 5597 5598 5598 5599 5599 5600 5600 5600 5601 5603 5604 5606 5608 5611 5613 5615 5617 5618 5618 5619 5621 5622 5624 5627 5630 5637 5642 5643 5645 5648 5650 5652 5652 5653 5654
5594 5592 5590 5589 5588 5588 5588 5588 5589 5589 5588 5589 5590 5590 5591 5591 5592 5594 5595 5595 5596 5595 5594 5593 5593 5592 5592 5593 5593 5594 5595 5595 5596 5596 5597 5597 5598 5599 5601 5602 5603 5604 5606 5607 5610 5612 5612 5614 5617 5619 5621 5623 5624 5631 5637 5639 5641 5644 5647 5649 5651 5651 5652
5593 5591 5590 5588 5587 5586 5586 5586 5586 5586 5585 5586 5585 5586 5587 5587 5588 5589 5590 5591 5592 5592 5592 5591 5591 5590 5590 5590 5590 5591 5591 5592 5593 5594 5595 5595 5596 5596 5598 5599 5599 5601 5602 5603 5605 5606 5607 5608 5611 5614 5617 5619 5621 5626 5632 5634 5637 5641 5644 5645 5648 5649 5650
5591 5590 5589 5588 5586 5585 5584 5584 5584 5583 5583 5584 5583 5583 5583 5583 5584 5584 5585 5586 5587 5588 5589 5589 5589 5589 5588 5588 5588 5588 5589 5590 5590 5591 5592 5593 5593 5593 5594 5595 5596 5597 5598 5600 5601 5602 5602 5604 5606 5609 5614 5616 5616 5623 5627 5628 5632 5637 5641 5643 5645 5646 5647
5589 5588 5587 5587 5585 5584 5583 5582 5582 5582 5582 5582 5582 5581 5581 5580 5580 5580 5580 5581 5581 5583 5584 5585 5586 5586 5586 5586 5586 5586 5586 5587 5587 5588 5589 5589 5590 5591 5592 5592 5593 5594 5595 5596 5597 5598 5599 5600 5601 5604 5608 5611 5613 5618 5622 5624 5627 5629 5635 5640 5641 5641 5643
5588 5587 5586 5585 5584 5582 5582 5582 5581 5580 5580 5580 5580 5580 5580 5579 5578 5578 5577 5577 5578 5579 5580 5580 5581 5581 5582 5582 5583 5583 5583 5584 5584 5585 5585 5586 5587 5588 5589 5589 5590 5590 5591 5592 5594 5595 5596 5597 5599 5600 5603 5605 5608 5613 5616 5619 5621 5623 5629 5635 5636 5637 5639
5586 5584 5584 5583 5582 5581 5581 5580 5580 5579 5578 5578 5577 5577 5577 5577 5577 5576 5576 5576 5576 5576 5577 5577 5577 5577 5577 5577 5578 5578 5579 5579 5580 5581 5582 5583 5583 5584 5585 5586 5586 5587 5588 5589 5590 5592 5594 5595 5596 5597 5598 5599 5601 5606 5610 5612 5616 5620 5625 5627 5630 5634 5636
5585 5583 5582 5581 5580 5579 5578 5578 5578 5577 5576 5575 5575 5575 5575 5575 5575 5575 5575 5575 5575 5575 5575 5575 5574 5574 5574 5573 5574 5574 5574 5575 5575 5576 5577 5578 5579 5580 5580 5581 5582 5583 5585 5586 5587 5588 5590 5591 5593 5593 5594 5594 5595 5598 5603 5606 5611 5616 5620 5621 5622 5628 5631
5584 5582 5581 5580 5579 5577 5576 5576 5576 5575 5574 5573 5573 5572 5572 5572 5572 5572 5572 5573 5572 5573 5573 5573 5572 5572 5571 5571 5571 5571 5571 5571 5571 5572 5572 5573 5574 5575 5576 5577 5578 5578 5580 5581 5583 5585 5586 5587 5589 5589 5590 5591 5591 5593 5596 5601 5607 5613 5614 5616 5617 5621 5624
5583 5582 5580 5579 5576 5575 5575 5573 5573 5573 5572 5571 5571 5570 5570 5570 5569 5569 5569 5569 5569 5569 5569 5569 5569 5568 5568 5568 5568 5568 5568 5568 5567 5568 5568 5568 5569 5570 5571 5572 5572 5573 5575 5577 5578 5580 5582 5583 5585 5585 5586 5587 5587 5589 5590 5593 5601 5610 5612 5611 5613 5616 5617
5582 5580 5579 5577 5575 5574 5573 5571 5571 5570 5570 5569 5568 5568 5567 5567 5566 5566 5565 5564 5564 5564 5564 5564 5564 5564 5564 5564 5564 5564 5564 5564 5564 5564 5564 5564 5565 5565 5566 5567 5567 5569 5570 5571 5572 5574 5576 5578 5580 5581 5582 5583 5583 5584 5585 5586 5591 5603 5609 5607 5608 5611 5612
5581 5579 5578 5576 5575 5573 5572 5570 5569 5567 5567 5566 5566 5565 5565 5564 5563 5562 5561 5561 5560 5559 5559 5559 5560 5560 5559 5560 5560 5560 5560 5560 5561 5561 5561 5561 5561 5562 5562 5562 5563 5564 5565 5566 5568 5569 5570 5572 5574 5576 5577 5579 5579 5580 5580 5581 5583 5592 5601 5603 5604 5606 5607
5580 5578 5577 5575 5574 5572 5570 5569 5567 5565 5564 5563 5562 5562 5561 5560 5559 5558 5557 5557 5556 5555 5555 5554 5554 5554 5554 5554 5555 5555 5555 5556 5556 5556 5556 5556 5556 5557 5557 5558 5558 5559 5561 5562 5563 5564 5565 5566 5568 5570 5571 5573 5575 5575 5575 5576 5578 5582 5592 5597 5598 5600 5602
5578 5577 5576 5575 5573 5572 5570 5567 5565 5564 5562 5561 5560 5559 5558 5557 5556 5555 5554 5553 5552 5551 5550 5549 5549 5549 5548 5548 5548 5548 5549 5549 5550 5550 5550 5550 5550 5551 5552 5553 5553 5554 5555 5557 5558 5559 5561 5562 5562 5563 5565 5567 5569 5571 5571 5571 5574 5577 5582 5589 5592 5593 5596
5576 5576 5575 5574 5573 5570 5568 5565 5563 5561 5559 5558 5557 5555 5554 5553 5552 5551 5550 5549 5547 5546 5545 5544 5543 5543 5543 5543 5543 5543 5543 5543 5543 5544 5544 5545 5545 5545 5546 5547 5548 5549 5550 5551 5552 5553 5555 5556 5558 5558 5559 5560 5561 5563 5565 5566 5568 5572 5575 5581 5586 5587 5588
5576 5575 5574 5573 5571 5568 5565 5563 5561 5558 5556 5554 5553 5552 5551 5549 5548 5548 5546 5544 5543 5541 5540 5539 5538 5538 5537 5537 5537 5537 5536 5537 5537 5538 5538 5539 5539 5540 5540 5541 5542 5543 5544 5545 5546 5547 5548 5550 5552 5553 5554 5554 5555 5556 5558 5559 5561 5564 5567 5572 5578 5581 5582
5576 5575 5572 5570 5568 5565 5563 5561 5558 5556 5554 5551 5550 5548 5547 5546 5545 5544 5542 5540 5538 5537 5535 5533 5533 5533 5531 5531 5531 5530 5531 5531 5531 5532 5532 5533 5533 5533 5534 5535 5536 5536 5538 5539 5540 5541 5542 5543 5545 5547 5548 5549 5550 5549 5551 5552 5553 5556 5558 5563 5568 5573 5575
5575 5572 5568 5565 5563 5561 5560 5558 5556 5554 5551 5549 5547 5544 5543 5542 5540 5539 5537 5535 5534 5532 5530 5529 5528 5527 5526 5526 5526 5525 5525 5526 5526 5527 5527 5528 5528 5528 5529 5529 5529 5530 5531 5532 5534 5535 5537 5538 5538 5540 5541 5542 5543 5544 5545 5546 5546 5548 5550 5553 5558 5564 5568
5571 5567 5562 5558 5557 5555 5554 5553 5552 5550 5548 5546 5544 5542 5540 5538 5536 5534 5533 5531 5529 5528 5526 5524 5523 5522 5521 5520 5520 5520 5520 5520 5521 5522 5523 5523 5523 5524 5524 5524 5524 5525 5525 5526 5527 5528 5530 5531 5532 5533 5534 5534 5535 5538 5539 5540 5540 5541 5542 5544 5548 5553 5558
5567 5561 5557 5553 5550 5549 5548 5547 5545 5544 5542 5542 5540 5538 5536 5533 5531 5529 5527 5526 5524 5522 5521 5519 5518 5517 5516 5515 5515 5515 5515 5515 5516 5517 5518 5519 5519 5519 5520 5520 5520 5520 5521 5522 5522 5523 5524 5525 5525 5527 5528 5527 5528 5530 5531 5533 5534 5535 5536 5537 5540 5543 5548
5560 5555 5553 5550 5546 5544 5543 5540 5539 5537 5536 5535 5534 5532 5530 5528 5526 5524 5522 5520 5518 5516 5515 5514 5512 5511 5511 5510 5510 5509 5510 5511 5511 5512 5513 5514 5515 5515 5515 5516 5516 5516 5517 5517 5517 5517 5518 5518 5519 5521 5521 5522 5521 5522 5523 5526 5527 5528 5529 5531 5534 5536 5539
5551 5550 5548 5545 5542 5540 5538 5536 5534 5531 5530 5528 5527 5526 5525 5522 5520 5518 5515 5513 5512 5511 5509 5508 5507 5507 5506 5505 5504 5504 5505 5505 5506 5506 5507 5508 5509 5511 5511 5511 5512 5512 5512 5512 5512 5512 5512 5513 5514 5515 5515 5516 5515 5515 5516 5517 5520 5521 5522 5525 5528 5529 5532
5545 5543 5540 5540 5538 5535 5533 5532 5529 5526 5524 5522 5520 5519 5518 5516 5513 5511 5509 5507 5506 5504 5503 5502 5502 5501 5500 5499 5499 5499 5500 5500 5501 5501 5501 5502 5503 5504 5506 5506 5507 5507 5507 5507 5507 5507 5507 5507 5508 5508 5509 5510 5510 5510 5509 5510 5512 5514 5515 5518 5522 5525 5528
5543 5539 5536 5535 5534 5531 5529 5528 5526 5523 5520 5516 5513 5512 5510 5509 5507 5505 5503 5501 5500 5498 5497 5496 5496 5495 5495 5495 5494 5495 5495 5495 5496 5496 5496 5497 5497 5498 5499 5500 5501 5502 5501 5501 5501 5501 5501 5501 5501 5501 5502 5503 5504 5505 5504 5505 5506 5507 5509 5511 5515 5521 5523
5539 5537 5534 5530 5527 5523 5521 5520 5519 5517 5513 5510 5507 5505 5504 5503 5501 5499 5497 5495 5494 5493 5491 5491 5490 5489 5489 5489 5489 5490 5490 5491 5492 5492 5492 5492 5492 5492 5493 5493 5495 5496 5495 5495 5494 5493 5493 5493 5493 5494 5494 5495 5497 5498 5499 5500 5500 5501 5503 5504 5508 5514 5518
5531 5531 5528 5521 5515 5512 5511 5511 5510 5508 5505 5503 5502 5501 5499 5498 5496 5494 5492 5490 5489 5489 5487 5485 5485 5484 5484 5484 5484 5485 5486 5486 5487 5488 5488 5488 5487 5487 5487 5487 5488 5489 5488 5488 5487 5485 5485 5484 5484 5486 5487 5488 5489 5491 5493 5494 5494 5495 5497 5499 5502 5507 5510
5523 5523 5521 5513 5507 5505 5505 5504 5502 5499 5497 5495 5495 5495 5493 5492 5491 5489 5487 5486 5485 5483 5481 5481 5480 5479 5479 5479 5480 5480 5481 5482 5483 5484 5484 5483 5482 5482 5481 5480 5481 5481 5481 5481 5478 5477 5475 5474 5475 5477 5478 5481 5482 5484 5487 5488 5488 5489 5491 5493 5496 5499 5503
5515 5515 5512 5507 5503 5502 5500 5497 5496 5493 5491 5489 5489 5489 5488 5486 5485 5484 5482 5481 5479 5478 5477 5476 5475 5475 5474 5474 5474 5475 5476 5477 5478 5479 5480 5479 5477 5477 5476 5474 5474 5474 5474 5472 5470 5468 5466 5465 5467 5468 5470 5473 5475 5478 5482 5482 5481 5483 5485 5486 5490 5492 5495
5509 5506 5503 5498 5495 5494 5492 5490 5489 5488 5486 5485 5484 5483 5482 5481 5479 5478 5477 5476 5475 5474 5473 5472 5471 5470 5469 5469 5469 5470 5471 5472 5473 5474 5474 5474 5473 5472 5471 5469 5467 5466 5466 5465 5462 5460 5457 5455 5458 5460 5461 5464 5468 5473 5477 5475 5475 5477 5477 5479 5484 5486 5488
5501 5498 5495 5490 5486 5485 5483 5482 5480 5479 5478 5479 5480 5478 5476 5475 5472 5471 5471 5471 5470 5469 5468 5466 5466 5465 5464 5463 5463 5464 5465 5466 5468 5469 5469 5469 5469 5467 5465 5463 5461 5459 5458 5457 5454 5452 5450 5449 5450 5453 5453 5455 5460 5467 5469 5468 5469 5471 5470 5472 5476 5479 5482
5493 5490 5486 5483 5480 5478 5475 5473 5473 5472 5472 5473 5473 5473 5471 5470 5467 5467 5466 5465 5465 5464 5462 5461 5460 5459 5458 5458 5458 5458 5458 5459 5461 5463 5463 5463 5463 5462 5459 5457 5455 5452 5450 5449 5448 5446 5446 5443 5444 5446 5446 5447 5454 5460 5460 5461 5463 5464 5464 5467 5469 5471 5476
5484 5481 5479 5476 5474 5472 5470 5469 5468 5467 5467 5466 5467 5467 5466 5464 5462 5461 5461 5460 5459 5458 5456 5455 5454 5453 5453 5453 5452 5452 5452 5451 5452 5454 5456 5456 5454 5453 5452 5450 5448 5446 5444 5444 5443 5442 5442 5441 5439 5441 5442 5444 5448 5450 5450 5452 5454 5455 5457 5461 5463 5465 5470
5472 5471 5471 5470 5469 5466 5464 5464 5464 5463 5463 5462 5462 5462 5460 5458 5456 5456 5456 5454 5453 5451 5450 5448 5447 5447 5447 5448 5447 5445 5444 5444 5443 5444 5447 5447 5445 5444 5444 5442 5442 5441 5439 5440 5439 5438 5437 5436 5435 5437 5439 5440 5440 5441 5441 5443 5445 5446 5450 5454 5457 5461 5465
5465 5466 5466 5467 5466 5463 5460 5460 5459 5458 5458 5457 5456 5455 5454 5453 5452 5452 5452 5449 5447 5445 5443 5441 5441 5442 5442 5442 5441 5439 5437 5437 5435 5433 5435 5437 5437 5436 5436 5436 5436 5436 5434 5434 5433 5432 5432 5431 5431 5433 5435 5434 5434 5433 5433 5436 5438 5441 5444 5447 5451 5456 5461
5463 5464 5464 5464 5462 5458 5456 5455 5453 5451 5450 5450 5449 5449 5449 5449 5447 5447 5446 5444 5442 5439 5437 5436 5435 5436 5436 5435 5434 5432 5430 5428 5427 5425 5424 5427 5427 5428 5429 5429 5429 5429 5428 5427 5427 5427 5427 5427 5428 5430 5431 5430 5429 5428 5428 5431 5433 5436 5440 5443 5447 5452 5457